Theta_e
320 321 325 337 337 331 338 340 339 339 341 341 343 344 342 342 346 348 341 341 332 337 339 338 339 341 343 345 345 344 339 335 329 327 331 333 337 340 342 343 342 341 334 324 325 331 336 341 341
319 323 334 336 331 332 333 335 340 341 342 342 343 342 343 342 344 341 337 334 336 338 337 332 332 335 339 341 342 343 344 341 335 329 332 332 336 337 337 337 337 336 332 324 330 335 338 338 340
320 327 336 326 326 331 336 338 340 338 341 342 341 341 341 340 343 336 330 331 329 328 330 327 325 325 327 336 339 340 341 342 343 335 330 331 334 336 334 330 331 332 329 325 328 334 337 335 338
326 330 328 327 329 327 334 335 337 338 337 343 342 342 341 343 341 333 331 331 335 329 337 334 330 330 332 329 331 335 339 340 340 343 337 332 331 335 335 332 330 328 327 326 323 331 334 332 333
327 329 323 325 325 324 335 335 336 335 336 340 341 341 339 341 342 332 330 330 339 330 332 337 328 327 331 335 336 337 338 340 342 342 342 338 334 332 334 335 333 331 329 326 325 323 326 331 331
329 323 321 321 321 337 338 338 337 336 336 339 339 339 338 332 331 334 333 336 341 330 327 325 325 325 326 327 331 334 337 340 342 343 343 343 342 339 335 334 335 335 333 332 330 327 325 324 324
326 319 322 320 328 339 340 340 338 338 340 339 338 340 337 336 334 336 338 339 332 330 332 331 327 325 324 322 323 325 330 343 343 344 343 342 342 341 341 339 337 336 335 335 333 332 329 328 327
331 314 319 318 338 342 340 338 337 339 341 344 341 342 339 335 334 338 339 340 334 330 332 332 332 332 327 324 324 324 325 326 327 330 331 333 333 336 338 338 339 338 337 335 335 334 332 331 329
322 315 316 324 336 340 337 336 338 340 340 343 345 344 343 336 339 336 339 340 339 338 336 333 332 332 332 329 331 331 332 334 332 330 332 333 332 330 330 330 336 336 336 336 335 333 332 330 330
317 316 324 323 333 335 336 335 336 338 342 342 340 338 339 338 338 340 338 337 337 336 333 333 331 335 331 332 331 331 332 335 335 335 333 331 331 329 332 331 329 330 331 331 331 334 333 329 329
318 330 340 340 337 337 337 336 336 341 342 340 338 340 341 334 329 330 331 331 329 330 331 333 334 334 331 329 330 328 328 331 334 333 334 335 332 334 335 334 334 337 338 339 340 340 340 340 338
321 338 343 343 341 341 341 340 340 341 341 336 335 336 341 336 333 335 335 333 333 332 331 330 330 328 326 326 327 326 324 324 330 332 333 331 333 333 333 333 334 335 335 335 336 338 331 338 337
320 331 342 340 339 339 339 338 337 336 338 336 335 335 337 338 337 338 335 334 332 328 327 328 328 327 326 325 324 320 319 321 324 328 330 327 326 327 329 329 328 329 329 329 334 336 335 330 333
332 342 340 340 338 337 337 337 337 336 335 334 335 335 334 334 337 338 335 332 332 329 325 324 323 323 320 320 320 320 317 317 318 319 319 321 323 325 325 326 327 327 327 326 326 330 334 334 330
339 337 336 334 331 334 335 336 338 336 334 334 335 334 335 335 335 334 334 331 326 323 323 324 323 322 322 322 317 319 319 318 317 316 317 316 315 315 319 321 322 323 324 325 325 324 324 329 331
318 321 335 335 332 331 333 339 339 335 334 334 334 334 334 334 333 331 325 322 325 324 322 322 322 322 322 320 321 321 320 319 318 317 317 316 315 314 314 315 316 318 319 321 323 322 322 322 325
315 317 327 336 334 334 334 339 334 336 333 333 333 333 332 332 329 326 325 325 328 327 322 321 322 323 322 322 322 322 319 319 317 317 316 314 313 313 313 313 313 313 314 318 323 322 323 322 324
319 319 327 337 335 334 336 336 335 334 335 333 334 333 333 333 331 330 332 331 331 324 322 323 323 323 323 324 323 322 320 317 316 314 313 312 311 311 311 311 312 312 312 313 319 322 324 323 322
318 320 328 336 335 337 335 339 337 335 334 334 333 333 333 333 332 333 333 331 330 327 326 325 324 324 324 324 322 319 315 314 313 312 310 310 309 308 309 311 312 314 315 314 314 317 320 322 322
320 336 339 336 335 336 337 335 334 336 337 337 334 333 333 333 332 332 332 330 330 328 327 326 324 323 321 318 316 314 313 312 310 309 309 308 307 307 307 308 310 312 313 315 315 315 318 321 322
319 332 339 338 335 333 334 334 334 332 335 337 334 333 333 333 333 329 330 331 329 328 325 323 321 320 317 315 314 313 311 309 307 307 308 307 305 305 305 306 308 310 311 312 313 315 316 320 320
322 329 337 338 337 338 333 338 332 334 333 334 335 335 333 332 324 323 328 325 323 322 321 320 318 316 314 313 312 309 308 307 307 306 305 305 304 303 303 304 307 309 311 313 314 316 316 317 320
324 334 337 337 326 336 339 336 339 334 333 331 335 336 327 323 323 324 322 321 320 320 319 316 315 314 313 311 310 308 307 307 306 305 303 302 302 302 302 303 306 308 309 310 312 315 316 317 318
326 327 322 323 328 338 336 338 339 338 335 332 333 336 326 322 322 321 321 320 319 318 316 315 313 313 311 309 307 306 306 306 304 303 302 302 301 301 300 302 304 306 307 309 310 311 313 315 316
321 320 322 325 338 340 336 341 339 338 334 332 332 330 322 322 321 320 320 319 318 316 314 313 312 311 309 307 305 305 304 303 302 302 301 301 301 300 300 301 302 305 307 308 309 309 311 312 313
325 322 324 329 341 340 337 344 338 338 334 329 324 322 321 321 320 319 319 318 316 314 312 312 312 309 307 306 305 304 303 302 301 301 301 301 300 300 300 300 300 303 304 305 306 307 308 310 311
325 325 323 330 333 336 337 339 337 337 323 320 319 320 321 320 319 319 318 317 315 312 311 311 309 307 305 304 304 303 303 302 302 302 301 301 300 300 299 299 300 302 304 304 305 305 306 307 308
324 323 326 322 339 343 339 341 340 338 323 320 319 318 319 319 319 319 317 315 313 310 310 310 307 304 305 304 303 303 302 302 302 302 301 301 300 299 298 298 299 302 303 303 303 303 303 303 304
324 325 322 321 332 338 340 336 335 332 321 319 319 319 319 318 319 317 316 314 310 310 310 308 305 304 304 303 303 303 303 303 303 302 302 301 300 300 300 299 300 301 301 302 302 302 302 302 303
324 326 321 324 328 331 331 330 320 319 319 319 318 318 317 318 318 317 315 311 310 310 308 306 304 304 304 304 304 304 303 303 303 303 302 302 301 301 301 300 300 300 301 301 301 301 302 302 302
Wind_Speed
1 3 5 3 4 4 3 5 2 10 8 22 23 19 18 15 8 6 5 7 7 6 7 6 5 5 6 7 8 7 8 8 8 10 12 13 14 15 15 13 12 12 13 13 16 20 21 17 13
1 2 3 2 4 4 5 4 7 12 12 23 20 13 20 9 13 9 10 14 8 8 6 6 6 7 8 9 7 7 7 8 9 10 10 10 12 11 11 11 11 12 12 13 16 20 21 18 16
1 2 1 4 2 3 3 9 12 8 13 2 7 15 6 2 8 12 17 8 7 6 5 5 6 6 8 10 11 9 8 7 7 9 10 10 11 12 11 10 11 12 12 14 17 20 21 19 18
1 0 3 3 2 3 2 8 8 3 10 9 18 11 6 10 15 24 16 10 3 6 4 3 3 4 5 6 7 7 7 7 8 9 9 10 10 11 11 11 11 12 13 14 17 20 22 21 20
1 2 4 3 3 4 5 9 17 3 4 6 2 7 6 16 21 22 10 7 3 7 5 3 5 6 7 8 8 7 7 8 9 9 9 10 11 13 13 13 12 12 13 14 16 18 22 23 23
3 3 4 2 6 5 5 20 17 5 12 19 18 10 6 20 12 4 8 3 7 7 4 3 3 4 5 7 6 4 2 3 5 7 9 11 13 14 14 15 15 15 15 16 16 18 20 23 23
4 4 1 2 2 6 4 9 7 2 7 13 12 5 14 14 8 14 7 8 10 7 3 1 2 3 1 1 2 5 7 3 5 6 9 12 14 15 16 17 18 18 18 18 19 20 21 21 22
2 4 3 4 3 2 2 5 4 11 8 3 6 5 5 15 15 12 13 10 10 4 3 2 12 8 2 3 5 6 4 5 8 8 9 11 15 18 19 20 21 20 19 20 20 20 21 22 23
3 4 2 4 7 5 3 4 10 12 15 19 11 14 12 13 4 10 15 9 2 3 3 7 14 5 4 10 14 9 9 12 9 12 15 18 26 25 25 24 23 22 23 23 22 23 23 23 24
4 4 4 3 6 7 9 5 8 8 19 20 27 29 25 22 23 20 19 22 19 17 15 15 16 13 8 10 9 8 6 13 13 14 17 19 21 22 25 27 25 23 24 23 24 25 25 25 26
5 6 7 5 12 21 12 9 5 17 7 11 18 26 28 30 29 30 27 25 25 23 21 22 22 14 11 9 12 12 11 12 13 14 15 11 13 13 19 19 20 18 18 20 22 25 28 25 24
4 18 14 12 19 21 16 19 13 15 13 20 23 25 25 28 30 28 26 22 20 19 17 17 15 12 9 10 15 20 21 19 15 14 15 14 13 11 10 12 14 16 16 18 22 24 25 29 29
2 9 23 23 20 25 30 20 18 21 22 20 23 25 27 25 23 21 21 20 18 20 20 20 19 19 18 19 21 24 25 23 18 17 17 17 16 14 12 13 12 11 9 11 17 25 26 24 26
9 28 23 19 18 23 34 20 7 16 23 27 27 28 26 24 21 20 19 20 18 16 16 15 15 14 14 17 22 23 20 24 24 21 25 22 19 17 15 14 14 14 14 15 15 18 23 29 38
28 12 6 4 6 20 20 8 5 23 21 26 28 24 24 24 20 19 17 16 17 15 12 9 12 13 15 14 24 18 16 25 28 27 25 23 24 25 23 21 18 17 18 16 16 18 20 22 21
6 6 6 4 9 8 4 4 6 18 23 20 25 26 24 20 17 15 14 17 14 12 10 9 11 15 17 15 17 13 15 24 26 28 30 27 25 26 25 24 24 22 21 20 18 20 21 22 24
5 5 4 4 3 1 5 10 6 8 19 18 18 22 22 18 15 14 11 8 5 7 6 10 12 14 13 12 15 16 16 23 25 29 31 32 30 27 24 25 26 25 24 23 21 21 22 21 20
4 5 2 6 3 2 14 12 9 5 11 14 17 19 21 17 13 11 7 5 4 4 3 4 5 7 9 11 15 16 20 26 27 28 29 28 27 26 25 22 21 20 22 23 23 20 19 19 19
6 0 4 1 6 6 9 14 6 2 13 10 12 18 18 12 12 8 5 7 3 2 2 3 4 6 9 13 17 20 25 26 26 25 24 24 25 26 25 23 19 14 13 17 17 21 20 18 16
6 5 2 3 9 6 2 8 5 9 8 5 11 20 16 14 13 9 4 5 5 5 5 5 4 6 11 16 21 22 20 20 21 21 21 23 24 25 25 23 20 19 14 11 13 15 19 19 16
6 8 10 7 7 7 4 5 3 6 7 5 9 18 10 9 8 12 10 14 7 7 5 1 7 13 17 21 21 21 22 22 22 22 23 24 26 27 25 22 18 17 13 11 11 14 14 18 19
2 13 15 17 6 5 2 3 4 3 2 3 10 13 9 11 17 13 15 14 11 9 5 8 13 18 19 20 21 22 22 22 21 23 24 26 25 26 25 20 17 16 14 11 11 10 10 13 16
7 18 18 10 7 6 2 5 2 3 2 4 4 9 15 18 13 19 19 16 12 7 8 12 16 17 17 19 20 21 18 17 19 22 24 27 24 25 21 20 17 17 16 14 15 11 11 6 11
15 8 5 4 4 4 3 3 3 2 5 4 6 5 16 20 24 22 17 12 9 7 10 13 13 12 14 18 22 17 16 17 22 25 27 25 26 24 24 20 19 16 15 15 16 16 11 9 4
7 6 2 2 4 3 3 5 3 6 5 5 12 16 24 24 21 19 15 10 7 7 10 10 10 12 16 19 19 17 17 20 23 24 24 25 28 27 25 21 20 16 15 15 15 14 10 10 9
3 7 5 4 4 2 6 2 3 3 11 21 23 26 25 22 20 15 11 9 9 9 9 9 10 14 17 18 14 15 16 20 23 24 24 25 25 24 23 17 18 15 16 17 16 16 13 11 10
3 4 5 7 3 4 1 0 2 6 13 17 22 25 23 20 14 11 9 8 9 10 10 10 13 15 15 14 14 15 16 19 20 23 25 26 24 21 18 17 14 15 16 16 17 18 19 16 12
6 6 3 4 5 3 4 4 5 7 11 12 14 21 20 16 12 10 7 8 8 8 9 11 14 14 15 15 17 18 20 19 20 22 24 29 28 31 23 15 15 14 17 18 20 20 20 20 18
3 3 7 6 4 5 5 4 6 11 13 13 17 21 20 16 13 10 7 6 7 9 10 13 14 15 16 16 17 18 18 19 19 21 23 27 26 28 26 21 15 16 16 17 19 20 20 21 21
4 4 4 5 2 3 3 4 5 12 19 21 22 20 17 14 11 8 6 6 7 10 12 15 14 16 16 17 19 19 19 19 19 20 22 21 24 24 27 26 21 18 18 18 18 18 19 19 20
Wind_Direction
288 340 331 359 41 59 297 277 319 101 68 66 87 101 102 50 48 119 37 61 125 203 173 145 149 159 170 173 170 161 149 145 147 151 155 160 166 171 178 187 194 193 198 203 198 194 192 189 183
314 353 358 111 80 29 308 301 51 91 114 107 77 44 53 54 78 98 132 131 161 178 164 156 165 176 175 185 189 188 182 175 171 170 172 175 178 181 184 190 197 203 209 208 202 197 198 200 199
49 352 262 91 109 121 331 62 80 61 53 80 102 51 54 24 137 127 100 109 169 171 151 151 161 170 186 191 193 194 194 197 195 191 191 192 193 196 200 204 207 212 217 217 211 207 206 207 210
124 354 69 83 230 256 195 116 139 153 45 67 104 77 77 137 132 114 92 350 158 142 102 108 138 148 157 174 189 200 202 214 221 222 219 216 213 216 218 216 212 214 218 218 219 218 217 218 218
176 55 49 352 288 310 352 69 123 92 89 121 107 109 96 130 129 137 55 80 136 130 134 133 154 170 169 154 152 173 190 201 204 209 222 230 230 229 229 230 229 224 224 225 222 222 225 227 227
42 49 50 353 338 9 32 63 66 92 137 103 94 101 145 149 137 9 47 25 122 126 130 144 181 201 186 173 167 160 184 209 224 222 231 242 248 248 247 244 241 238 233 232 231 230 228 230 232
105 75 156 329 359 34 26 42 53 298 73 51 131 102 157 152 127 84 103 98 104 110 113 96 276 247 284 358 141 191 194 197 222 239 250 254 260 259 256 254 250 247 244 243 241 239 239 239 239
104 86 28 355 101 171 285 96 49 27 34 73 140 112 151 160 97 86 110 107 118 95 12 228 337 277 74 318 322 292 277 290 301 298 290 292 288 274 261 254 254 252 250 252 252 253 251 249 248
145 60 26 176 147 187 152 100 63 65 56 52 73 101 121 172 228 114 75 112 108 14 24 35 28 97 113 44 354 342 346 346 324 303 293 290 301 294 273 260 252 249 250 248 249 252 253 252 250
115 96 223 207 149 140 109 114 114 87 64 71 82 91 98 101 102 101 97 100 101 89 83 53 72 88 74 45 63 63 31 29 10 340 325 312 312 291 276 269 256 253 259 257 253 252 251 250 249
129 153 139 116 159 138 119 97 105 110 64 92 98 102 100 94 94 95 94 97 95 94 97 83 80 76 62 44 24 22 18 14 15 13 1 345 323 306 290 290 265 264 265 260 257 261 257 254 251
96 134 117 122 147 138 134 132 100 104 127 116 108 112 113 101 101 100 98 92 88 80 78 79 73 63 37 9 4 359 352 353 338 339 336 332 329 324 308 298 295 289 294 280 273 274 262 248 259
111 107 127 129 144 125 114 101 101 105 128 123 113 112 113 118 117 108 101 94 88 74 62 55 46 27 12 1 355 351 348 348 342 333 337 335 336 335 326 319 319 315 307 314 278 270 264 251 243
84 120 110 129 135 115 111 133 117 133 131 126 123 119 122 120 121 117 110 100 93 81 65 51 35 16 13 7 5 357 356 0 344 341 330 325 330 333 329 322 313 310 308 304 298 286 280 259 244
121 99 99 164 152 115 86 29 90 146 144 132 131 130 123 124 124 115 116 112 102 83 65 44 22 16 11 8 4 355 355 347 340 330 329 321 317 315 310 309 307 303 298 295 288 289 292 280 267
102 82 140 222 221 184 108 106 117 141 145 137 135 135 132 132 121 117 120 116 98 64 46 35 22 358 1 2 358 344 331 328 331 324 321 323 320 315 307 301 296 291 288 285 280 282 282 279 273
21 170 161 178 1 108 82 144 142 131 156 143 145 144 137 131 125 120 112 103 84 50 23 3 353 4 353 347 339 327 309 319 316 313 315 320 323 323 316 307 300 293 282 276 276 271 275 272 272
167 100 220 173 214 107 101 91 93 73 148 144 156 158 148 141 144 138 117 145 116 82 38 333 342 333 318 311 315 311 313 318 316 315 319 326 332 332 329 325 317 308 291 279 267 273 267 273 277
105 170 154 245 30 71 91 97 63 80 123 140 175 179 163 154 149 127 141 162 138 185 236 214 252 279 297 314 321 319 322 323 323 327 328 330 334 338 340 338 339 332 312 300 284 269 273 267 273
153 117 87 37 19 85 178 103 135 113 103 82 176 184 169 169 172 171 135 175 218 221 210 217 269 317 333 330 328 331 333 332 331 333 337 339 340 339 340 343 345 352 346 322 312 289 278 275 270
204 166 184 152 108 57 131 29 97 83 97 73 132 174 156 162 133 124 155 196 194 182 168 344 345 336 331 333 337 336 333 335 338 342 339 345 343 339 339 340 341 345 355 348 331 328 293 285 269
256 178 157 146 128 153 80 180 334 10 146 84 108 124 119 123 126 132 142 139 137 113 60 1 341 335 343 350 345 346 345 345 348 343 343 337 338 340 344 350 356 357 353 347 326 326 311 275 280
211 152 160 144 93 103 329 77 294 348 121 193 155 120 115 122 137 133 129 121 100 68 20 356 350 354 357 353 353 346 348 349 344 342 347 350 351 347 355 7 6 4 1 3 356 334 329 336 262
129 105 62 42 92 58 291 136 287 220 219 171 174 150 131 128 124 122 117 106 85 48 14 0 4 5 2 2 358 358 359 352 345 345 347 354 349 0 7 9 11 5 7 13 2 354 360 350 339
73 63 29 25 47 173 275 69 232 293 217 172 157 131 133 132 127 120 114 100 82 39 15 12 8 8 7 6 12 9 3 357 353 356 6 5 0 2 2 4 8 11 11 17 12 359 358 9 14
79 134 148 188 156 213 6 54 285 341 76 110 119 130 136 127 123 116 105 86 55 22 26 29 19 12 3 5 19 15 9 14 14 18 12 8 0 358 354 1 4 4 14 21 20 18 19 19 16
187 68 156 108 56 79 173 152 20 96 99 98 113 129 131 129 124 116 103 63 37 36 38 31 17 5 10 27 23 16 21 23 21 15 16 7 1 357 356 3 8 12 15 14 13 14 18 20 14
125 154 77 31 130 123 219 200 195 172 136 136 128 128 133 132 137 128 90 57 39 39 39 26 11 23 38 37 31 30 29 26 20 22 20 19 24 24 24 24 23 23 27 24 25 26 32 34 31
32 64 60 107 100 147 159 250 187 170 161 145 140 140 146 143 136 128 98 59 57 45 30 18 25 38 37 40 35 29 27 24 25 24 23 27 29 28 28 27 24 22 22 27 25 25 31 33 33
95 92 99 116 206 71 120 263 343 135 144 144 150 151 149 145 143 133 107 83 55 37 25 22 37 51 49 48 46 40 33 25 21 23 24 25 30 30 32 32 36 42 43 37 31 30 29 26 25